51,2013-07-17 19:28:18,1374089298,55.20787,-10.10259,2,2,2013-07-17 19:27:00,1374089220,16.73,6,15.8,0,4095,55.2018,-10.0748,32,48
52,2013-07-17 20:06:11,1374091571,55.18217,-10.16442,2,2,2013-07-17 20:00:00,1374091200,16.73,9,15.8,30,4095,55.2018,-10.0748,32,48
53,2013-07-17 21:06:11,1374095171,55.18737,-10.10259,2,2,2013-07-17 21:00:00,1374094800,15.09,13,15.8,30,0,55.1942,-10.0732,68,44
54,2013-07-17 22:06:09,1374098769,55.21303,-10.04073,10,2,2013-07-17 22:00:00,1374098400,15.06,9,15.8,30,60,55.1942,-10.0732,68,44
55,2013-07-17 23:06:12,1374102372,55.16348,-10.02979,3,2,2013-07-17 23:00:00,1374102000,15.02,10,15.8,30,120,55.1942,-10.0732,68,44
56,2013-07-18 00:06:12,1374105972,55.19253,-10.04073,2,1,2013-07-18 00:00:00,1374105600,14.99,9,15.8,30,0,55.2072,-10.0476,82,44
57,2013-07-18 01:06:07,1374109567,55.24209,-10.0517,8,2,2013-07-18 01:00:00,1374109200,14.96,10,15.8,30,60,55.2072,-10.0476,82,44
58,2013-07-18 02:06:10,1374113170,55.21816,-9.97886,2,2,2013-07-18 02:00:00,1374112800,14.94,11,15.8,30,120,55.2072,-10.0476,82,44
59,2013-07-18 03:06:13,1374116773,55.20787,-10.10259,2,4,2013-07-18 03:00:00,1374116400,14.99,10,15.8,30,0,55.2146,-10.0356,90,44
60,2013-07-18 04:06:12,1374120372,55.20787,-10.10259,2,6,2013-07-18 04:00:00,1374120000,15.04,9,15.8,30,60,55.2146,-10.0356,90,44
61,2013-07-18 05:06:09,1374123969,55.21816,-9.97886,2,2,2013-07-18 05:00:00,1374123600,15.07,9,15.8,30,120,55.2146,-10.0356,90,44
62,2013-07-18 06:06:37,1374127597,55.24723,-9.98976,3,1,2013-07-18 06:00:00,1374127200,15.07,7,15.8,30,0,55.2224,-10.0348,34,48
63,2013-07-18 07:06:09,1374131169,55.23692,-10.11362,2,3,2013-07-18 07:00:00,1374130800,15.07,9,15.8,37,60,55.2224,-10.0348,34,48
64,2013-07-18 08:06:11,1374134771,55.21303,-10.04073,6,2,2013-07-18 08:00:00,1374134400,15.09,8,15.8,30,120,55.2224,-10.0348,34,48
65,2013-07-18 09:06:14,1374138374,55.21303,-10.04073,3,32,2013-07-18 09:00:00,1374138000,15.12,10,15.8,30,0,55.2338,-10.0318,64,44
66,2013-07-18 10:06:09,1374141969,55.20159,-12.80148,192,1,2013-07-18 10:00:00,1374141600,15.14,7,15.8,30,60,55.2338,-10.0318,64,44
67,2013-07-18 11:06:09,1374145569,55.21816,-9.97886,2,3,2013-07-18 11:00:00,1374145200,15.18,9,15.8,30,120,55.2338,-10.0318,64,44
68,2013-07-18 12:06:15,1374149175,55.24153,-10.75488,97,2,2013-07-18 12:00:00,1374148800,15.22,6,15.8,30,0,55.2456,-10.006,64,48
69,2013-07-18 13:06:13,1374152773,55.21816,-9.97886,4,2,2013-07-18 13:00:00,1374152400,15.22,8,15.8,30,60,55.2456,-10.006,64,48
70,2013-07-18 14:06:09,1374156369,55.28126,-10.18663,67,2,2013-07-18 14:00:00,1374156000,15.28,8,15.8,30,120,55.2456,-10.006,64,48
71,2013-07-18 15:06:12,1374159972,55.24209,-10.0517,2,4,2013-07-18 15:00:00,1374159600,15.37,9,15.8,30,0,55.2502,-9.9888,62,48
72,2013-07-18 16:06:09,1374163569,55.13605,-7.67757,179,6,2013-07-18 16:00:00,1374163200,15.44,9,15.8,30,60,55.2502,-9.9888,62,48
73,2013-07-18 17:06:13,1374167173,55.21816,-9.97886,6,2,2013-07-18 17:00:00,1374166800,15.43,9,15.8,30,120,55.2502,-9.9888,62,48
74,2013-07-18 18:06:15,1374170775,55.14656,-6.47882,232,2,2013-07-18 18:00:00,1374170400,15.47,9,15.8,30,0,55.2546,-9.99259999999998,62,48
75,2013-07-18 19:06:13,1374174373,55.29679,-10.00068,5,6,2013-07-18 19:00:00,1374174000,15.45,10,15.8,30,60,55.2546,-9.99259999999998,62,48
76,2013-07-18 20:06:09,1374177969,55.29679,-10.00068,13,3,2013-07-18 20:00:00,1374177600,15.44,9,15.8,30,120,55.2546,-9.99259999999998,62,48
77,2013-07-18 21:06:13,1374181573,55.24723,-9.98976,3,9,2013-07-18 21:00:00,1374181200,15.44,8,15.8,30,0,55.2682,-9.9948,10,44
78,2013-07-18 22:06:15,1374185175,55.24723,-9.98976,6,2,2013-07-18 22:00:00,1374184800,15.41,9,15.8,30,60,55.2682,-9.9948,10,44
79,2013-07-18 23:06:09,1374188769,55.3019,-9.93865,3,2,2013-07-18 23:00:00,1374188400,15.42,8,15.8,30,120,55.2682,-9.9948,10,44
80,2013-07-19 00:06:09,1374192369,55.24723,-9.98976,4,1,2013-07-19 00:00:00,1374192000,15.38,8,15.8,30,0,55.2824,-9.9736,32,48
81,2013-07-19 01:06:09,1374195969,55.51596,-5.90614,265,1,2013-07-19 01:00:00,1374195600,15.36,8,15.8,30,60,55.2824,-9.9736,32,48
82,2013-07-19 02:06:11,1374199571,55.24723,-9.98976,6,1,2013-07-19 02:00:00,1374199200,15.36,8,15.8,30,120,55.2824,-9.9736,32,48
83,2013-07-19 03:06:13,1374203173,55.3019,-9.93865,3,3,2013-07-19 03:00:00,1374202800,15.34,7,15.8,30,0,55.2902,-9.95319999999998,62,48
84,2013-07-19 04:06:11,1374206771,55.3019,-9.93865,3,7,2013-07-19 04:00:00,1374206400,15.33,10,15.8,30,60,55.2902,-9.95319999999998,62,48
85,2013-07-19 05:06:09,1374210369,55.29679,-10.00068,4,1,2013-07-19 05:00:00,1374210000,15.28,11,15.8,30,120,55.2902,-9.95319999999998,62,48
86,2013-07-19 06:06:12,1374213972,55.27281,-9.92779,3,1,2013-07-19 06:00:00,1374213600,15.23,9,15.8,30,0,55.2934,-9.95519999999999,82,44
87,2013-07-19 07:06:11,1374217571,55.2677,-9.98976,2,0,2013-07-19 07:00:00,1374217200,15.28,9,15.8,30,60,55.2934,-9.95519999999999,82,44
88,2013-07-19 08:06:09,1374221169,55.29679,-10.00068,11,1,2013-07-19 08:00:00,1374220800,15.29,10,15.8,30,120,55.2934,-9.95519999999999,82,44
89,2013-07-19 09:06:15,1374224775,55.3019,-9.93865,2,7,2013-07-19 09:00:00,1374224400,15.29,11,15.8,30,0,55.3022,-9.96699999999998,92,48
90,2013-07-19 10:06:09,1374228369,55.20537,-14.95168,326,4,2013-07-19 10:00:00,1374228000,15.33,10,15.8,30,60,55.3022,-9.96699999999998,92,48
91,2013-07-19 11:06:43,1374232003,55.35145,-9.94954,12,2,2013-07-19 11:00:00,1374231600,15.41,10,15.8,30,120,55.3022,-9.96699999999998,92,48
92,2013-07-19 12:06:13,1374235573,55.46946,-12.76219,191,4,2013-07-19 12:00:00,1374235200,15.41,9,15.8,43,0,55.3162,-9.9616,62,48
93,2013-07-19 13:06:09,1374239169,55.34632,-10.01163,1,2,2013-07-19 13:00:00,1374238800,15.47,12,15.8,30,60,55.3162,-9.9616,62,48
94,2013-07-19 14:06:12,1374242772,55.32589,-10.01163,3,2,2013-07-19 14:00:00,1374242400,15.57,9,15.8,30,120,55.3162,-9.9616,62,48
95,2013-07-19 15:06:09,1374246369,55.30698,-9.8766,2,2,2013-07-19 15:00:00,1374246000,15.65,11,15.8,30,0,55.3276,-9.9444,62,48
96,2013-07-19 16:06:10,1374249970,55.27333,-9.16235,81,2,2013-07-19 16:00:00,1374249600,15.65,9,15.8,30,60,55.3276,-9.9444,62,48
97,2013-07-19 17:06:11,1374253571,55.3019,-9.93865,2,6,2013-07-19 17:00:00,1374253200,15.66,10,15.8,30,120,55.3276,-9.9444,62,48
98,2013-07-19 18:06:12,1374257172,55.34151,-8.92347,97,6,2013-07-19 18:00:00,1374256800,15.69,9,15.8,30,0,55.336,-9.94139999999999,110,48
99,2013-07-19 19:06:13,1374260773,55.35145,-9.94954,3,2,2013-07-19 19:00:00,1374260400,15.67,10,15.8,30,60,55.336,-9.94139999999999,110,48
100,2013-07-19 20:06:19,1374264379,55.3019,-9.93865,14,3,2013-07-19 20:00:00,1374264000,15.65,12,15.8,30,120,55.336,-9.94139999999999,110,48
101,2013-07-19 21:06:14,1374267974,55.35654,-9.88742,2,3,2013-07-19 21:00:00,1374267600,15.63,12,15.8,30,0,55.3446,-9.9512,172,48
102,2013-07-19 22:06:14,1374271574,55.3019,-9.93865,4,2,2013-07-19 22:00:00,1374271200,15.7,11,15.8,30,60,55.3446,-9.9512,172,48
103,2013-07-19 23:06:12,1374275172,55.3019,-9.93865,9,4,2013-07-19 23:00:00,1374274800,15.83,13,15.8,30,120,55.3446,-9.9512,172,48
104,2013-07-20 00:06:12,1374278772,55.35145,-9.94954,2,2,2013-07-20 00:00:00,1374278400,15.83,11,15.8,30,0,55.36,-9.9512,92,44
105,2013-07-20 01:06:21,1374282381,55.50095,-7.61975,161,2,2013-07-20 01:00:00,1374282000,15.74,12,15.8,30,60,55.36,-9.9512,92,44
106,2013-07-20 02:06:13,1374285973,55.35145,-9.94954,3,1,2013-07-20 02:00:00,1374285600,15.71,13,15.8,30,120,55.36,-9.9512,92,44
107,2013-07-20 03:06:10,1374289570,55.40098,-9.96044,8,6,2013-07-20 03:00:00,1374289200,15.66,13,15.8,30,0,55.3786,-9.923,64,48
108,2013-07-20 04:06:11,1374293171,55.35654,-9.88742,2,1,2013-07-20 04:00:00,1374292800,15.59,12,15.8,30,60,55.3786,-9.923,64,48
109,2013-07-20 05:06:10,1374296770,55.35145,-9.94954,3,1,2013-07-20 05:00:00,1374296400,15.57,10,15.8,30,120,55.3786,-9.923,64,48
110,2013-07-20 06:06:14,1374300374,55.38057,-9.96044,2,1,2013-07-20 06:00:00,1374300000,15.57,10,15.8,30,0,55.3848,-9.9014,86,48
111,2013-07-20 07:06:21,1374303981,55.35654,-9.88742,14,1,2013-07-20 07:00:00,1374303600,15.59,11,15.8,30,60,55.3848,-9.9014,86,48
112,2013-07-20 08:06:10,1374307570,55.39074,-9.83605,2,5,2013-07-20 08:00:00,1374307200,15.63,10,15.8,30,120,55.3848,-9.9014,86,48
113,2013-07-20 09:06:48,1374311208,55.40098,-9.96044,2,0,2013-07-20 09:00:00,1374310800,15.72,8,15.8,30,0,55.385,-9.90600000000001,10,44
114,2013-07-20 10:06:14,1374314774,55.35145,-9.94954,7,0,2013-07-20 10:00:00,1374314400,15.83,13,15.8,47,60,55.385,-9.90600000000001,10,44
115,2013-07-20 11:06:11,1374318371,55.38057,-9.96044,1,5,2013-07-20 11:00:00,1374318000,16.18,8,15.8,30,120,55.385,-9.90600000000001,10,44
116,2013-07-20 12:06:14,1374321974,55.66821,-15.33328,352,3,2013-07-20 12:00:00,1374321600,16.47,10,15.8,30,0,55.3962,-9.91499999999999,32,48
117,2013-07-20 13:06:14,1374325574,55.43522,-9.90912,6,2,2013-07-20 13:00:00,1374325200,16.62,12,15.8,30,60,55.3962,-9.91499999999999,32,48
118,2013-07-20 14:06:16,1374329176,55.59417,-14.35934,10,2,2013-07-20 14:00:00,1374328800,16.58,11,15.8,30,120,55.3962,-9.91499999999999,32,48
119,2013-07-20 15:06:14,1374332774,55.44029,-9.84685,3,2,2013-07-20 15:00:00,1374332400,16.64,10,15.8,30,0,55.417,-9.899,32,48
120,2013-07-20 16:06:11,1374336371,55.51005,-11.34719,112,5,2013-07-20 16:00:00,1374336000,16.74,7,15.8,30,60,55.417,-9.899,32,48
121,2013-07-20 17:06:17,1374339977,55.43522,-9.90912,2,2,2013-07-20 17:00:00,1374339600,16.79,8,15.8,30,120,55.417,-9.899,32,48
122,2013-07-20 18:06:23,1374343583,55.47519,-11.39676,191,2,2013-07-20 18:00:00,1374343200,16.99,9,15.8,30,0,55.427,-9.876,62,48
123,2013-07-20 19:06:13,1374347173,55.41114,-9.83605,2,3,2013-07-20 19:00:00,1374346800,16.98,9,15.8,30,60,55.427,-9.876,62,48
124,2013-07-20 20:06:11,1374350771,55.37718,-8.42466,113,7,2013-07-20 20:00:00,1374350400,16.97,8,15.8,30,120,55.427,-9.876,62,48
125,2013-07-20 21:06:17,1374354377,55.43522,-9.90912,2,2,2013-07-20 21:00:00,1374354000,16.9,10,15.8,30,0,55.43,-9.87260000000001,32,60
126,2013-07-20 22:06:11,1374357971,55.43522,-9.90912,3,6,2013-07-20 22:00:00,1374357600,16.93,10,15.8,30,60,55.43,-9.87260000000001,32,60
127,2013-07-20 23:06:10,1374361570,55.41114,-9.83605,2,1,2013-07-20 23:00:00,1374361200,16.9,8,15.8,30,120,55.43,-9.87260000000001,32,60
128,2013-07-21 00:06:11,1374365171,55.40607,-9.89826,2,7,2013-07-21 00:00:00,1374364800,16.96,8,15.8,30,0,55.4336,-9.87379999999999,80,48
129,2013-07-21 01:06:15,1374368775,55.5467,-7.69096,163,1,2013-07-21 01:00:00,1374368400,16.92,8,15.8,30,60,55.4336,-9.87379999999999,80,48
130,2013-07-21 02:06:11,1374372371,55.44029,-9.84685,2,6,2013-07-21 02:00:00,1374372000,16.91,9,15.8,30,120,55.4336,-9.87379999999999,80,48
131,2013-07-21 03:06:13,1374375973,55.56992,-7.31383,175,2,2013-07-21 03:00:00,1374375600,16.92,9,15.8,30,0,55.4474,-9.85839999999999,32,48
132,2013-07-21 04:06:14,1374379574,55.43522,-9.90912,2,4,2013-07-21 04:00:00,1374379200,16.83,8,15.8,30,60,55.4474,-9.85839999999999,32,48
133,2013-07-21 05:06:11,1374383171,55.46571,-9.78456,3,6,2013-07-21 05:00:00,1374382800,16.42,8,15.8,30,120,55.4474,-9.85839999999999,32,48
134,2013-07-21 06:06:15,1374386775,55.46571,-9.78456,2,1,2013-07-21 06:00:00,1374386400,16.26,9,15.8,30,0,55.453,-9.834,58,48
135,2013-07-21 07:06:11,1374390371,55.45559,-9.90912,3,5,2013-07-21 07:00:00,1374390000,16.06,9,15.8,30,60,55.453,-9.834,58,48
136,2013-07-21 08:06:18,1374393978,55.46067,-9.84685,3,1,2013-07-21 08:00:00,1374393600,16.08,9,15.8,30,120,55.453,-9.834,58,48
137,2013-07-21 09:06:14,1374397574,55.44029,-9.84685,4,13,2013-07-21 09:00:00,1374397200,16.13,9,15.8,30,0,55.4542,-9.82939999999999,64,48
138,2013-07-21 10:06:16,1374401176,55.48983,-9.85767,7,1,2013-07-21 10:00:00,1374400800,16.39,9,15.8,30,60,55.4542,-9.82939999999999,64,48
139,2013-07-21 11:06:11,1374404771,55.44534,-9.78456,2,4,2013-07-21 11:00:00,1374404400,16.64,9,15.8,30,120,55.4542,-9.82939999999999,64,48
140,2013-07-21 12:06:12,1374408372,55.48983,-9.85767,4,9,2013-07-21 12:00:00,1374408000,16.83,12,15.8,30,0,55.4586,-9.83459999999999,62,48
141,2013-07-21 13:06:14,1374411974,55.44029,-9.84685,4,2,2013-07-21 13:00:00,1374411600,16.78,11,15.8,30,60,55.4586,-9.83459999999999,62,48
142,2013-07-21 14:06:13,1374415573,55.71654,-14.36082,292,2,2013-07-21 14:00:00,1374415200,16.8,10,15.8,30,120,55.4586,-9.83459999999999,62,48
143,2013-07-21 15:06:12,1374419172,55.48983,-9.85767,2,6,2013-07-21 15:00:00,1374418800,16.88,10,15.8,30,0,55.4674,-9.828,86,48
144,2013-07-21 16:06:14,1374422774,55.57583,-11.82004,165,6,2013-07-21 16:00:00,1374422400,16.88,11,15.8,30,60,55.4674,-9.828,86,48
145,2013-07-21 17:06:12,1374426372,55.51523,-9.79531,9,2,2013-07-21 17:00:00,1374426000,16.86,13,15.8,30,120,55.4674,-9.828,86,48
146,2013-07-21 18:06:12,1374429972,55.51403,-10.63911,85,2,2013-07-21 18:00:00,1374429600,16.87,10,15.8,30,0,55.481,-9.8152,64,48
147,2013-07-21 19:06:12,1374433572,55.49488,-9.79531,5,4,2013-07-21 19:00:00,1374433200,16.81,9,15.8,30,60,55.481,-9.8152,64,48
148,2013-07-21 20:06:11,1374437171,55.55247,-10.7754,109,3,2013-07-21 20:00:00,1374436800,16.8,11,15.8,30,120,55.481,-9.8152,64,48
149,2013-07-21 21:06:11,1374440771,55.51523,-9.79531,4,1,2013-07-21 21:00:00,1374440400,16.83,11,15.8,30,0,55.4898,-9.8142,62,48
150,2013-07-21 22:06:10,1374444370,55.48983,-9.85767,2,6,2013-07-21 22:00:00,1374444000,16.79,9,15.8,30,60,55.4898,-9.8142,62,48
151,2013-07-21 23:06:11,1374447971,55.49488,-9.79531,3,7,2013-07-21 23:00:00,1374447600,16.69,10,15.8,30,120,55.4898,-9.8142,62,48
152,2013-07-22 00:06:13,1374451573,55.49488,-9.79531,2,6,2013-07-22 00:00:00,1374451200,16.39,10,15.8,30,0,55.4928,-9.8108,62,48
153,2013-07-22 01:06:15,1374455175,55.49323,-10.1803,73,2,2013-07-22 01:00:00,1374454800,16.16,8,15.8,30,60,55.4928,-9.8108,62,48
154,2013-07-22 02:06:18,1374458778,55.46571,-9.78456,5,1,2013-07-22 02:00:00,1374458400,16.37,10,15.8,30,120,55.4928,-9.8108,62,48
155,2013-07-22 03:06:29,1374462389,55.48558,-9.53514,80,2,2013-07-22 03:00:00,1374462000,16.6,10,15.8,30,0,55.4928,-9.80199999999999,62,48
156,2013-07-22 04:06:13,1374465973,55.49991,-9.73293,3,3,2013-07-22 04:00:00,1374465600,16.42,10,15.8,30,60,55.4928,-9.80199999999999,62,48
157,2013-07-22 05:06:13,1374469573,55.48983,-9.85767,8,4,2013-07-22 05:00:00,1374469200,16.36,9,15.8,30,120,55.4928,-9.80199999999999,62,48
158,2013-07-22 06:06:13,1374473173,55.51523,-9.79531,4,1,2013-07-22 06:00:00,1374472800,16.32,10,15.8,30,0,55.5014,-9.79179999999999,32,48
159,2013-07-22 07:06:12,1374476772,55.48983,-9.85767,5,1,2013-07-22 07:00:00,1374476400,16.24,7,15.8,30,60,55.5014,-9.79179999999999,32,48
160,2013-07-22 08:06:10,1374480370,55.54441,-9.80609,7,2,2013-07-22 08:00:00,1374480000,16.32,8,15.8,30,120,55.5014,-9.79179999999999,32,48
161,2013-07-22 09:06:21,1374483981,55.49991,-9.73293,3,0,2013-07-22 09:00:00,1374483600,16.38,9,15.8,30,0,55.5096,-9.78479999999999,12,48
162,2013-07-22 10:06:10,1374487570,55.49991,-9.73293,1,1,2013-07-22 10:00:00,1374487200,16.59,11,15.8,30,60,55.5096,-9.78479999999999,12,48
163,2013-07-22 11:06:13,1374491173,55.49488,-9.79531,7,2,2013-07-22 11:00:00,1374490800,16.85,9,15.8,30,120,55.5096,-9.78479999999999,12,48
164,2013-07-22 12:06:13,1374494773,55.49991,-9.73293,2,4,2013-07-22 12:00:00,1374494400,16.82,11,15.8,30,0,55.5088,-9.78319999999999,56,48
165,2013-07-22 13:06:12,1374498372,55.49488,-9.79531,1,2,2013-07-22 13:00:00,1374498000,16.9,9,15.8,30,60,55.5088,-9.78319999999999,56,48
166,2013-07-22 14:06:11,1374501971,55.49488,-9.79531,3,3,2013-07-22 14:00:00,1374501600,16.94,8,15.8,30,120,55.5088,-9.78319999999999,56,48
167,2013-07-22 15:06:10,1374505570,55.49991,-9.73293,2,7,2013-07-22 15:00:00,1374505200,17.14,9,15.8,30,0,55.5098,-9.78219999999999,86,44
168,2013-07-22 16:06:12,1374509172,55.49991,-9.73293,4,3,2013-07-22 16:00:00,1374508800,17.28,8,15.8,30,60,55.5098,-9.78219999999999,86,44
169,2013-07-22 17:06:11,1374512771,55.49488,-9.79531,2,8,2013-07-22 17:00:00,1374512400,17.21,10,15.8,30,120,55.5098,-9.78219999999999,86,44
170,2013-07-22 18:06:12,1374516372,55.54944,-9.74364,10,5,2013-07-22 18:00:00,1374516000,17.13,12,15.8,30,0,55.52,-9.7722,86,48
171,2013-07-22 19:06:13,1374519973,55.54441,-9.80609,3,4,2013-07-22 19:00:00,1374519600,16.99,9,15.8,30,60,55.52,-9.7722,86,48
172,2013-07-22 20:06:14,1374523574,55.52686,-10.37848,110,4,2013-07-22 20:00:00,1374523200,16.8,9,15.8,30,120,55.52,-9.7722,86,48
173,2013-07-22 21:06:11,1374527171,55.54944,-9.74364,2,3,2013-07-22 21:00:00,1374526800,16.92,10,15.8,30,0,55.527,-9.774,88,48
174,2013-07-22 22:06:13,1374530773,55.49488,-9.79531,4,4,2013-07-22 22:00:00,1374530400,16.94,10,15.8,30,60,55.527,-9.774,88,48
175,2013-07-22 23:06:17,1374534377,55.49488,-9.79531,7,2,2013-07-22 23:00:00,1374534000,16.93,11,15.8,30,120,55.527,-9.774,88,48
176,2013-07-23 00:06:13,1374537973,55.52025,-9.73293,3,3,2013-07-23 00:00:00,1374537600,16.93,9,15.8,30,0,55.531,-9.78100000000001,32,48
177,2013-07-23 01:06:14,1374541574,55.44207,-11.84307,150,2,2013-07-23 01:00:00,1374541200,16.87,8,15.8,30,60,55.531,-9.78100000000001,32,48
178,2013-07-23 02:06:11,1374545171,55.49488,-9.79531,3,3,2013-07-23 02:00:00,1374544800,16.89,10,15.8,30,120,55.531,-9.78100000000001,32,48
179,2013-07-23 03:06:09,1374548769,55.60298,-8.91984,97,2,2013-07-23 03:00:00,1374548400,16.86,8,15.8,30,0,55.5314,-9.774,34,48
180,2013-07-23 04:06:14,1374552374,55.49991,-9.73293,2,4,2013-07-23 04:00:00,1374552000,16.8,8,15.8,30,60,55.5314,-9.774,34,48
181,2013-07-23 05:06:22,1374555982,55.5715,-8.65936,96,0,2013-07-23 05:00:00,1374555600,16.81,10,15.8,30,120,55.5314,-9.774,34,48
182,2013-07-23 06:06:09,1374559569,55.51523,-9.79531,2,1,2013-07-23 06:00:00,1374559200,16.88,10,15.8,30,0,55.5314,-9.762,34,48
183,2013-07-23 07:06:09,1374563169,55.62576,-7.70796,171,0,2013-07-23 07:00:00,1374562800,16.84,8,15.8,30,60,55.5314,-9.762,34,48
184,2013-07-23 08:06:09,1374566769,55.54944,-9.74364,1,1,2013-07-23 08:00:00,1374566400,16.91,7,15.8,30,120,55.5314,-9.762,34,48
185,2013-07-23 09:06:13,1374570373,55.54441,-9.80609,3,2,2013-07-23 09:00:00,1374570000,17.01,8,15.8,30,0,55.5332,-9.76300000000001,34,48
186,2013-07-23 10:06:12,1374573972,55.49488,-9.79531,5,0,2013-07-23 10:00:00,1374573600,16.96,9,15.8,30,60,55.5332,-9.76300000000001,34,48
187,2013-07-23 11:06:09,1374577569,55.53935,-9.86852,2,2,2013-07-23 11:00:00,1374577200,16.91,9,15.8,30,120,55.5332,-9.76300000000001,34,48
188,2013-07-23 12:06:13,1374581173,55.54441,-9.80609,2,3,2013-07-23 12:00:00,1374580800,17.01,8,15.8,30,0,55.5348,-9.7784,34,48
189,2013-07-23 13:06:09,1374584769,55.54944,-9.74364,9,2,2013-07-23 13:00:00,1374584400,17.11,8,15.8,30,60,55.5348,-9.7784,34,48
190,2013-07-23 14:06:09,1374588369,55.52025,-9.73293,3,2,2013-07-23 14:00:00,1374588000,17.24,8,15.8,30,120,55.5348,-9.7784,34,48
191,2013-07-23 15:06:11,1374591971,55.49488,-9.79531,3,5,2013-07-23 15:00:00,1374591600,17.18,9,15.8,30,0,55.5392,-9.7764,64,48
192,2013-07-23 16:06:10,1374595570,55.54944,-9.74364,4,4,2013-07-23 16:00:00,1374595200,17.2,11,15.8,30,60,55.5392,-9.7764,64,48
193,2013-07-23 17:06:23,1374599183,55.54441,-9.80609,2,3,2013-07-23 17:00:00,1374598800,17.37,8,15.8,30,120,55.5392,-9.7764,64,48
194,2013-07-23 18:06:09,1374602769,55.7419,-13.24782,237,2,2013-07-23 18:00:00,1374602400,17.37,8,15.8,30,0,55.5422,-9.7604,34,48
195,2013-07-23 19:06:16,1374606376,55.54944,-9.74364,2,2,2013-07-23 19:00:00,1374606000,17.3,7,15.8,30,60,55.5422,-9.7604,34,48
196,2013-07-23 20:06:09,1374609969,55.69245,-12.57021,192,20,2013-07-23 20:00:00,1374609600,17.15,7,15.8,30,120,55.5422,-9.7604,34,48
197,2013-07-23 21:06:14,1374613574,55.54441,-9.80609,1,6,2013-07-23 21:00:00,1374613200,17.12,9,15.8,30,0,55.5444,-9.75819999999999,32,48
198,2013-07-23 22:06:09,1374617169,55.63977,-12.29447,179,5,2013-07-23 22:00:00,1374616800,17.02,10,15.8,30,60,55.5444,-9.75819999999999,32,48
199,2013-07-23 23:06:10,1374620770,55.52025,-9.73293,2,8,2013-07-23 23:00:00,1374620400,17.01,10,15.8,30,120,55.5444,-9.75819999999999,32,48
200,2013-07-24 00:06:13,1374624373,55.51523,-9.79531,2,2,2013-07-24 00:00:00,1374624000,16.98,9,15.8,30,0,55.5454,-9.7706,92,48
201,2013-07-24 01:06:14,1374627974,55.5204,-11.86908,159,1,2013-07-24 01:00:00,1374627600,16.87,9,15.8,30,60,55.5454,-9.7706,92,48
202,2013-07-24 02:06:17,1374631577,55.52524,-9.67052,10,2,2013-07-24 02:00:00,1374631200,16.8,10,15.8,30,120,55.5454,-9.7706,92,48
203,2013-07-24 03:06:13,1374635173,55.49243,-11.53336,129,3,2013-07-24 03:00:00,1374634800,16.75,9,15.8,30,0,55.5476,-9.76319999999998,14,48
204,2013-07-24 04:06:12,1374638772,55.54441,-9.80609,2,4,2013-07-24 04:00:00,1374638400,16.69,10,15.8,30,60,55.5476,-9.76319999999998,14,48
205,2013-07-24 05:06:11,1374642371,55.55444,-9.68117,3,6,2013-07-24 05:00:00,1374642000,16.77,10,15.8,30,120,55.5476,-9.76319999999998,14,48
206,2013-07-24 06:06:11,1374645971,55.55444,-9.68117,2,1,2013-07-24 06:00:00,1374645600,16.63,9,15.8,30,0,55.5482,-9.74679999999998,122,48
207,2013-07-24 07:06:16,1374649576,55.61372,-8.34557,112,3,2013-07-24 07:00:00,1374649200,16.64,9,15.8,30,60,55.5482,-9.74679999999998,122,48
208,2013-07-24 08:06:11,1374653171,55.54441,-9.80609,3,1,2013-07-24 08:00:00,1374652800,16.71,10,15.8,30,120,55.5482,-9.74679999999998,122,48
209,2013-07-24 09:06:13,1374656773,55.51523,-9.79531,12,1,2013-07-24 09:00:00,1374656400,16.63,11,15.8,30,0,55.548,-9.73839999999998,56,44
210,2013-07-24 10:06:13,1374660373,55.54944,-9.74364,5,0,2013-07-24 10:00:00,1374660000,16.65,12,15.8,30,60,55.548,-9.73839999999998,56,44
211,2013-07-24 11:06:24,1374663984,55.54944,-9.74364,3,2,2013-07-24 11:00:00,1374663600,16.63,11,15.8,30,120,55.548,-9.73839999999998,56,44
212,2013-07-24 12:06:14,1374667574,55.57865,-9.75438,4,5,2013-07-24 12:00:00,1374667200,16.73,10,15.8,30,0,55.5508,-9.75239999999999,110,40
213,2013-07-24 13:06:11,1374671171,55.54944,-9.74364,6,2,2013-07-24 13:00:00,1374670800,16.73,10,15.8,30,60,55.5508,-9.75239999999999,110,40
214,2013-07-24 14:06:17,1374674777,55.54944,-9.74364,2,3,2013-07-24 14:00:00,1374674400,16.7,9,15.8,30,120,55.5508,-9.75239999999999,110,40
215,2013-07-24 15:06:14,1374678374,55.54441,-9.80609,2,3,2013-07-24 15:00:00,1374678000,16.72,10,15.8,30,0,55.5568,-9.75319999999999,82,44
216,2013-07-24 16:06:23,1374681983,55.54441,-9.80609,13,3,2013-07-24 16:00:00,1374681600,16.72,14,15.8,30,60,55.5568,-9.75319999999999,82,44
217,2013-07-24 17:06:13,1374685573,55.60894,-9.62927,13,6,2013-07-24 17:00:00,1374685200,16.71,10,15.8,30,120,55.5568,-9.75319999999999,82,44
218,2013-07-24 18:06:12,1374689172,55.90496,-14.8283,329,6,2013-07-24 18:00:00,1374688800,16.7,9,15.8,30,0,55.5582,-9.73739999999998,88,44
219,2013-07-24 19:06:08,1374692768,55.54944,-9.74364,2,4,2013-07-24 19:00:00,1374692400,16.75,10,15.8,30,60,55.5582,-9.73739999999998,88,44
220,2013-07-24 20:06:09,1374696369,55.84071,-14.93554,338,6,2013-07-24 20:00:00,1374696000,16.65,10,15.8,30,120,55.5582,-9.73739999999998,88,44
221,2013-07-24 21:06:09,1374699969,55.59896,-9.75438,5,3,2013-07-24 21:00:00,1374699600,16.63,8,15.6,30,0,55.566,-9.732,56,44
222,2013-07-24 22:06:10,1374703570,55.54944,-9.74364,2,1,2013-07-24 22:00:00,1374703200,16.66,12,15.6,30,60,55.566,-9.732,56,44
223,2013-07-24 23:06:09,1374707169,55.60396,-9.69184,3,2,2013-07-24 23:00:00,1374706800,16.65,11,15.6,30,120,55.566,-9.732,56,44
224,2013-07-25 00:06:09,1374710769,55.55444,-9.68117,2,1,2013-07-25 00:00:00,1374710400,16.64,12,15.6,30,0,55.5692,-9.7328,50,48
225,2013-07-25 01:06:09,1374714369,55.4971,-14.405,301,2,2013-07-25 01:00:00,1374714000,16.61,11,15.6,30,60,55.5692,-9.7328,50,48
226,2013-07-25 02:06:10,1374717970,55.54944,-9.74364,2,5,2013-07-25 02:00:00,1374717600,16.6,11,15.6,30,120,55.5692,-9.7328,50,48
227,2013-07-25 03:06:15,1374721575,55.40927,-13.13197,233,2,2013-07-25 03:00:00,1374721200,16.58,14,15.6,30,0,55.5672,-9.726,56,44
228,2013-07-25 04:06:09,1374725169,55.55444,-9.68117,3,1,2013-07-25 04:00:00,1374724800,16.58,10,15.6,30,60,55.5672,-9.726,56,44
229,2013-07-25 05:06:09,1374728769,55.558,-10.71312,96,2,2013-07-25 05:00:00,1374728400,16.56,8,15.6,30,120,55.5672,-9.726,56,44